Find Starlink 33783

NORAD ID: 63712 Int'l Des: 2025-087 Owner: SPXS Country: US Constellation: starlink operational
LEOCIRCULAR

Live-Position

3D-Globus wird geladen...

Über Starlink 33783

Beschreibung wird geladen...

Nächste Überflüge

Passes for default location (London). Set your location on the main map for personalized predictions.

Höhenverlauf

Loading altitude history...

Zweizeiliger Elementsatz

1 63712U 25087R 26123.52970999 .00039050 00000-0 12624-2 0 9999
2 63712 53.1599 324.9863 0002017 89.4718 270.6514 15.31728344 57594
Epoch: 3. Mai 2026 • Age: 23 hours

Aktueller Status

Höhe 479.3 km
Geschwindigkeit 7.63 km/s
Subsatellitenpunkt -27.41°S, 127.35°E
Startdatum 28. Apr. 2025
Alter 1 years
Typ internet

Technische Details

Klassifizierung Payload
Masse 575.00 kg
Trockenmasse 530.00 kg
Gesamtmasse 575.00 kg
Länge 0.30 m
Durchmesser 4.10 m
Spannweite 29.00 m
Form Box + pan
Hersteller SPXS
Bus-Typ Starlink V2MO
Phasenstatus In Orbit
Besitzer/Staat SPXS/US

Most Searched